Waarnemingen

Advertentie
Mijn weer
Fürstenzell, Duitsland (10895): temperatuur & dauwpunt: 15.01.2017 11:00:00 - 21.01.2017 11:00:00 (CET)Fürstenzell, Duitsland (10895): temperatuur 5cm & temperatuur -5cm: 15.01.2017 11:00:00 - 21.01.2017 11:00:00 (CET)Fürstenzell, Duitsland (10895): temperatuur -20cm & temperatuur -100cm: 15.01.2017 11:00:00 - 21.01.2017 11:00:00 (CET)Fürstenzell, Duitsland (10895): windsnelheid & windstoten: 15.01.2017 11:00:00 - 21.01.2017 11:00:00 (CET)Fürstenzell, Duitsland (10895): windrichting: 15.01.2017 11:00:00 - 21.01.2017 11:00:00 (CET)Fürstenzell, Duitsland (10895): luchtdruk: 15.01.2017 11:00:00 - 21.01.2017 11:00:00 (CET)Fürstenzell, Duitsland (10895): zicht: 15.01.2017 11:00:00 - 21.01.2017 11:00:00 (CET)Fürstenzell, Duitsland (10895): Zonneschijnduur: 15.01.2017 11:00:00 - 21.01.2017 11:00:00 (CET)Fürstenzell, Duitsland (10895): neerslag: 15.01.2017 11:00:00 - 21.01.2017 11:00:00 (CET)
Datum & Tijd tt [°C] td [°C] tt 5cm [°C] tt -5cm [°C] tt -20cm [°C] tt -100cm [°C] ff [km/u] ff [kn] fx [km/u] fx [kn] dd ppp [hPa] vv [km] sd [min] rr [mm]
21.01.2017 11:00:00 -9,3 -10,1 -1,5 0,0 0,6 3,3 5 3 10 5 ZZO 1035,6 0,7 0 0,0
21.01.2017 10:00:00 -10,0 -10,8 -1,7 0,0 0,6 3,3 5 3 11 6 ZZO 1035,5 0,8 0 0,0
21.01.2017 09:00:00 -10,5 -11,0 -1,9 0,0 0,6 3,3 7 4 14 8 ZZO 1035,1 0,3 0 0,0
21.01.2017 08:00:00 -10,9 -11,5 -2,1 0,0 0,6 3,3 7 4 11 6 Z 1035,0 0,3 0 0,0
21.01.2017 07:00:00 -10,6 -11,0 -2,1 0,0 0,6 3,3 5 3 12 7 ZO 1034,7 0,3 0 0,0
21.01.2017 06:00:00 -10,7 -11,0 -2,1 0,0 0,6 3,3 5 3 7 4 ZW 1034,3 0,5 0 0,0
21.01.2017 05:00:00 -9,7 -10,4 -2,0 0,0 0,6 3,3 5 3 12 7 Z 1034,3 1,6 0 0,0
21.01.2017 04:00:00 -10,7 -11,4 -2,0 0,0 0,6 3,3 5 3 14 7 OZO 1034,6 1,4 0 0,0
21.01.2017 03:00:00 -11,0 -11,5 -1,9 0,0 0,6 3,3 6 3 14 8 ZO 1034,8 1,4 0 0,0
21.01.2017 02:00:00 -9,9 -10,6 -1,9 0,0 0,6 3,3 11 6 18 10 ZO 1034,7 2,0 0 0,0
21.01.2017 01:00:00 -8,9 -9,8 -1,8 0,0 0,6 3,3 9 5 15 8 Z 1034,8 2,2 0 0,0
21.01.2017 00:00:00 -8,9 -10,0 -1,7 0,0 0,6 3,3 10 5 16 9 Z 1035,1 2,3 0 0,0
20.01.2017 23:00:00 -8,3 -10,0 -1,6 0,0 0,6 3,3 8 5 10 6 Z 1035,1 2,9 0 0,0
20.01.2017 22:00:00 -8,8 -10,0 -1,5 0,0 0,6 3,3 6 3 10 5 ZO 1035,1 2,9 0 0,0
20.01.2017 21:00:00 -8,3 -10,2 -1,4 0,0 0,6 3,3 8 5 14 8 ZZW 1035,0 3,2 0 0,0
20.01.2017 20:00:00 -7,8 -10,3 -1,3 0,0 0,6 3,3 10 5 16 8 ZZW 1035,0 3,5 0 0,0
20.01.2017 19:00:00 -7,0 -10,3 -1,1 0,0 0,6 3,3 10 5 16 9 ZZW 1034,9 4,2 0 0,0
20.01.2017 18:00:00 -6,2 -10,0 -0,9 0,0 0,6 3,3 9 5 13 7 Z 1034,4 3,6 0 0,0
20.01.2017 17:00:00 -6,0 -10,0 -0,8 0,0 0,6 3,3 7 4 10 5 ZZW 1034,2 4,8 39 0,0
20.01.2017 16:00:00 -5,1 -10,3 -0,8 0,0 0,6 3,3 8 4 11 6 ZW 1034,0 5 60 0,0
20.01.2017 15:00:00 -4,8 -10,6 -0,8 0,0 0,6 3,3 7 4 11 6 ZW 1034,0 5 60 0,0
20.01.2017 14:00:00 -5,3 -10,7 -1,0 0,0 0,6 3,3 7 4 14 8 ZZW 1034,3 5 60 0,0
20.01.2017 13:00:00 -6,3 -11,1 -1,2 0,0 0,6 3,3 11 6 14 8 ZW 1035,1 4,2 60 0,0
20.01.2017 12:00:00 -7,3 -11,4 -1,5 0,0 0,6 3,3 10 5 16 9 ZZW 1035,7 3,5 60 0,0
20.01.2017 11:00:00 -8,2 -11,9 -1,7 0,0 0,6 3,3 9 5 16 8 Z 1036,6 3,4 60 0,0
20.01.2017 10:00:00 -10,1 -12,7 -1,8 0,0 0,6 3,3 6 3 14 8 ZZW 1036,8 3,2 60 0,0
20.01.2017 09:00:00 -11,4 -12,5 -1,9 0,0 0,6 3,3 6 3 13 7 ZZW 1037,1 3,0 48 0,0
20.01.2017 08:00:00 -11,9 -12,8 -1,9 0,0 0,6 3,3 8 4 15 8 WZW 1036,9 2,8 0 0,0
20.01.2017 07:00:00 -10,7 -11,9 -1,8 0,0 0,6 3,3 9 5 16 8 ZZW 1036,4 3,9 0 0,0
20.01.2017 06:00:00 -10,6 -11,8 -1,8 0,0 0,6 3,3 10 5 17 9 ZZW 1036,5 3,8 0 0,0
20.01.2017 05:00:00 -10,6 -11,5 -1,7 0,0 0,6 3,3 10 5 12 6 ZW 1036,8 3,2 0 0,0
20.01.2017 04:00:00 -11,0 -11,9 -1,7 0,0 0,6 3,3 8 4 17 9 WZW 1037,1 2,6 0 0,0
20.01.2017 03:00:00 -9,4 -11,0 -1,7 0,0 0,6 3,3 12 7 16 9 Z 1036,9 3,6 0 0,0
20.01.2017 02:00:00 -10,1 -11,0 -1,7 0,0 0,6 3,3 7 4 15 8 ZW 1037,2 2,8 0 0,0
20.01.2017 01:00:00 -10,0 -11,3 -1,7 0,0 0,6 3,3 10 5 16 9 ZZW 1037,3 2,9 0 0,0
20.01.2017 00:00:00 -9,4 -10,6 -1,6 0,0 0,6 3,3 10 6 17 9 Z 1037,4 3,1 0 0,0
19.01.2017 23:00:00 -9,3 -10,5 -1,6 0,0 0,6 3,3 10 5 13 7 ZZW 1037,6 3,1 0 0,0
19.01.2017 22:00:00 -9,7 -10,8 -1,5 0,0 0,6 3,3 10 5 17 9 ZW 1037,8 2,9 0 0,0
19.01.2017 21:00:00 -9,2 -10,7 -1,4 0,0 0,6 3,3 9 5 12 7 ZW 1037,3 3,0 0 0,0
19.01.2017 20:00:00 -8,3 -10,2 -1,3 0,0 0,6 3,3 9 5 11 6 ZZW 1037,2 3,6 0 0,0
19.01.2017 19:00:00 -7,7 -10,0 -1,1 0,0 0,6 3,4 8 5 11 6 ZZW 1037,0 3,8 0 0,0
19.01.2017 18:00:00 -7,3 -9,8 -0,9 0,0 0,6 3,4 5 3 13 7 ZZW 1036,5 3,5 0 0,0
19.01.2017 17:00:00 -7,0 -10,1 -0,8 0,0 0,6 3,4 10 5 12 7 ZZW 1036,4 4,0 36 0,0
19.01.2017 16:00:00 -6,1 -10,4 -0,8 0,0 0,6 3,4 8 4 11 6 ZZW 1036,2 4,2 60 0,0
19.01.2017 15:00:00 -5,9 -10,6 -0,9 0,0 0,6 3,4 8 4 12 6 ZW 1036,2 4,3 60 0,0
19.01.2017 14:00:00 -6,1 -10,7 -1,0 0,0 0,6 3,4 8 5 11 6 ZZW 1036,4 3,9 60 0,0
19.01.2017 13:00:00 -7,1 -11,2 -1,2 0,0 0,6 3,4 6 3 12 6 ZZW 1037,0 4,8 60 0,0
19.01.2017 12:00:00 -8,2 -11,4 -1,5 0,0 0,6 3,4 8 4 15 8 ZZW 1037,7 3,0 60 0,0
19.01.2017 11:00:00 -9,4 -11,7 -1,7 0,0 0,6 3,4 12 6 18 10 Z 1038,5 3,3 60 0,0
19.01.2017 10:00:00 -10,0 -11,8 -1,8 0,0 0,6 3,4 7 4 13 7 Z 1038,8 3,1 60 0,0
19.01.2017 09:00:00 -10,7 -11,8 -1,8 0,0 0,5 3,4 7 4 13 7 Z 1038,6 3,6 42 0,0
19.01.2017 08:00:00 -11,1 -12,1 -1,8 0,0 0,5 3,4 7 4 13 7 ZZO 1038,3 3,4 0 0,0
19.01.2017 07:00:00 -10,9 -11,6 -1,8 0,0 0,5 3,4 6 3 11 6 Z 1038,2 3,6 0 0,0
19.01.2017 06:00:00 -10,0 -11,1 -1,7 0,0 0,5 3,4 8 4 9 5 Z 1037,9 5 0 0,0
19.01.2017 05:00:00 -10,1 -11,0 -1,6 0,0 0,5 3,4 5 3 8 4 NO 1038,1 4,4 0 0,0
19.01.2017 04:00:00 -9,6 -10,4 -1,5 0,0 0,5 3,4 5 3 6 3 ONO 1038,1 4,2 0 0,0
19.01.2017 03:00:00 -8,8 -10,1 -1,3 0,0 0,5 3,4 4 2 6 3 NNO 1037,8 6 0 0,0
19.01.2017 02:00:00 -8,4 -10,4 -1,2 0,0 0,5 3,4 5 3 14 8 NO 1037,7 8 0 0,0
19.01.2017 01:00:00 -7,8 -10,0 -1,1 0,0 0,5 3,4 9 5 12 6 O 1037,4 8 0 0,0
19.01.2017 00:00:00 -7,9 -9,8 -1,0 0,0 0,5 3,4 4 2 24 13 OZO 1038,1 7 0 0,0
18.01.2017 23:00:00 -6,7 -9,4 -0,9 0,0 0,5 3,4 12 6 24 13 O 1038,0 8 0 0,0
18.01.2017 22:00:00 -6,5 -9,2 -0,8 0,0 0,5 3,4 12 6 19 10 O 1038,2 7 0 0,0
18.01.2017 21:00:00 -6,0 -9,2 -0,7 0,0 0,5 3,4 11 6 25 14 O 1038,3 9 0 0,0
18.01.2017 20:00:00 -5,1 -8,8 -0,6 0,0 0,5 3,4 14 8 28 15 O 1038,0 9 0 0,0
18.01.2017 19:00:00 -5,5 -9,1 -0,5 0,0 0,5 3,4 11 6 24 13 O 1037,7 9 0 0,0
18.01.2017 18:00:00 -4,7 -8,8 -0,4 0,0 0,5 3,4 16 9 36 20 O 1037,4 10 0 0,0
18.01.2017 17:00:00 -4,3 -8,8 -0,3 0,0 0,5 3,4 18 10 40 21 O 1037,3 11 0 0,0
18.01.2017 16:00:00 -4,3 -8,8 -0,3 0,0 0,5 3,4 24 13 45 24 ONO 1037,3 11 0 0,0
18.01.2017 15:00:00 -4,2 -8,7 -0,3 0,0 0,5 3,4 22 12 31 17 O 1037,2 11 0 0,0
18.01.2017 14:00:00 -4,1 -8,8 -0,4 0,0 0,5 3,4 23 13 35 19 O 1037,1 12 0 0,0
18.01.2017 13:00:00 -4,2 -9,0 -0,4 0,0 0,5 3,4 21 11 44 24 O 1037,4 12 0 0,0
18.01.2017 12:00:00 -4,4 -9,1 -0,5 0,0 0,5 3,4 26 14 42 23 O 1037,8 13 0 0,0
18.01.2017 11:00:00 -4,4 -9,1 -0,6 0,0 0,5 3,4 23 12 36 20 O 1038,2 12 0 0,0
18.01.2017 10:00:00 -4,6 -8,6 -0,6 0,0 0,5 3,4 18 10 30 16 O 1037,8 15 0 0,0
18.01.2017 09:00:00 -5,3 -8,6 -0,6 0,0 0,5 3,4 11 6 17 9 ONO 1037,9 15 0 0,0
18.01.2017 08:00:00 -5,7 -8,6 -0,6 0,0 0,5 3,4 9 5 13 7 NO 1037,6 17 0 0,0
18.01.2017 07:00:00 -5,9 -8,8 -0,6 0,0 0,5 3,4 9 5 18 10 NNO 1037,5 17 0 0,0
18.01.2017 06:00:00 -5,5 -9,0 -0,6 0,0 0,5 3,4 17 9 29 15 NO 1037,3 22 0 0,0
18.01.2017 05:00:00 -5,4 -8,8 -0,6 0,0 0,5 3,4 22 12 35 19 NO 1037,3 21 0 0,0
18.01.2017 04:00:00 -5,5 -8,6 -0,6 0,0 0,5 3,4 14 8 22 12 O 1037,3 15 0 0,0
18.01.2017 03:00:00 -5,6 -8,6 -0,6 0,0 0,5 3,4 13 7 24 13 ONO 1037,9 18 0 0,0
18.01.2017 02:00:00 -5,5 -8,6 -0,6 0,0 0,5 3,4 14 8 30 16 O 1037,8 16 0 0,0
18.01.2017 01:00:00 -5,2 -8,9 -0,6 0,0 0,5 3,4 19 10 31 17 O 1037,4 23 0 0,0
18.01.2017 00:00:00 -5,7 -8,5 -0,6 0,0 0,5 3,4 10 6 14 8 ONO 1037,5 21 0 0,0
17.01.2017 23:00:00 -5,8 -8,3 -0,6 0,0 0,5 3,4 9 5 18 10 ONO 1037,3 19 0 0,0
17.01.2017 22:00:00 -5,9 -8,0 -0,6 0,0 0,5 3,4 10 6 14 7 NO 1037,2 17 0 0,0
17.01.2017 21:00:00 -6,0 -8,3 -0,6 0,0 0,5 3,4 5 3 12 7 O 1036,7 20 0 0,0
17.01.2017 20:00:00 -5,8 -8,6 -0,5 0,0 0,5 3,4 6 4 8 5 NNO 1036,5 22 0 0,0
17.01.2017 19:00:00 -5,7 -8,7 -0,5 0,0 0,5 3,4 6 3 11 6 NO 1036,0 27 0 0,0
17.01.2017 18:00:00 -6,8 -9,8 -0,4 0,0 0,5 3,4 8 4 19 10 NO 1035,6 26 0 0,0
17.01.2017 17:00:00 -4,9 -8,3 -0,4 0,0 0,5 3,4 13 7 20 11 NO 1034,7 27 0 0,0
17.01.2017 16:00:00 -4,9 -8,6 -0,3 0,0 0,5 3,4 15 8 21 12 NO 1034,6 30 8 0,0
17.01.2017 15:00:00 -4,8 -8,9 -0,4 0,0 0,5 3,4 15 8 23 12 NNO 1034,0 22 13 0,0
17.01.2017 14:00:00 -4,0 -9,1 -0,4 0,0 0,5 3,4 16 9 25 14 NO 1033,5 23 60 0,0
17.01.2017 13:00:00 -4,4 -9,0 -0,4 0,0 0,5 3,4 21 11 32 17 NNO 1033,6 16 20 0,0
17.01.2017 12:00:00 -5,3 -8,8 -0,5 0,0 0,5 3,4 20 11 26 14 NNO 1033,6 21 3 0,0
17.01.2017 11:00:00 -5,7 -8,9 -0,6 0,0 0,5 3,4 21 11 31 17 NNO 1033,6 16 0 0,0
17.01.2017 10:00:00 -5,8 -8,6 -0,6 0,0 0,5 3,4 22 12 29 16 NO 1033,0 36 0 0,0
17.01.2017 09:00:00 -6,1 -8,5 -0,7 0,0 0,5 3,4 20 11 29 15 NO 1032,6 25 0 0,0
17.01.2017 08:00:00 -6,7 -8,6 -0,7 0,0 0,5 3,4 21 11 31 17 NNO 1032,2 21 0 0,0
17.01.2017 07:00:00 -6,5 -8,6 -0,6 0,0 0,5 3,4 18 10 27 15 NNO 1031,3 26 0 0,0
17.01.2017 06:00:00 -7,3 -9,2 -0,6 0,0 0,5 3,4 17 9 23 12 NNO 1030,9 25 0 0,0
17.01.2017 05:00:00 -6,2 -8,5 -0,5 0,0 0,4 3,4 18 10 28 15 NNO 1030,0 31 0 0,0
17.01.2017 04:00:00 -6,3 -8,3 -0,5 0,0 0,4 3,4 16 9 21 11 NNO 1029,6 26 0 0,0
17.01.2017 03:00:00 -5,9 -7,6 -0,4 0,0 0,4 3,4 12 7 19 10 NNO 1029,2 19 0 0,0
17.01.2017 02:00:00 -6,1 -7,2 -0,4 0,0 0,4 3,4 14 8 19 11 NNO 1028,8 11 0 0,0
17.01.2017 01:00:00 -4,6 -5,2 -0,4 0,0 0,4 3,4 10 5 13 7 N 1028,5 5 0 0,1
17.01.2017 00:00:00 -4,1 -4,5 -0,4 0,0 0,4 3,4 9 5 10 6 N 1027,9 1,6 0 0,0
16.01.2017 23:00:00 -4,3 -4,6 -0,4 0,0 0,4 3,4 5 3 6 4 NO 1027,6 3,3 0 0,3
16.01.2017 22:00:00 -4,3 -4,5 -0,3 0,0 0,4 3,4 5 3 8 4 NO 1027,2 1,4 0 0,1
16.01.2017 21:00:00 -4,5 -4,6 -0,2 0,0 0,4 3,4 4 2 7 4 NNO 1026,7 1,3 0 0,0
16.01.2017 20:00:00 -4,8 -4,8 -0,2 0,0 0,4 3,4 5 3 12 6 NNO 1026,4 3,0 0 0,0
16.01.2017 19:00:00 -4,3 -4,7 -0,1 0,0 0,4 3,4 3 1 9 5 WNW 1025,7 3,6 0 0,0
16.01.2017 18:00:00 -4,7 -4,9 -0,1 0,0 0,4 3,4 6 3 12 7 WNW 1025,4 3,5 0 0,0
16.01.2017 17:00:00 -4,2 -5,0 -0,1 0,0 0,4 3,4 9 5 11 6 WNW 1024,8 5 0 0,1
16.01.2017 16:00:00 -3,4 -5,1 -0,1 0,0 0,4 3,4 7 4 9 5 W 1024,0 8 0 0,0
16.01.2017 15:00:00 -2,8 -5,0 -0,1 0,0 0,4 3,4 6 3 9 5 W 1023,5 9 0 0,0
16.01.2017 14:00:00 -2,3 -4,8 -0,1 0,0 0,4 3,4 4 2 8 4 ZW 1022,9 6 0 0,2
16.01.2017 13:00:00 -2,6 -4,8 -0,2 0,0 0,4 3,4 4 2 8 4 Z 1023,2 8 0 0,0
16.01.2017 12:00:00 -2,5 -5,0 -0,2 0,0 0,4 3,4 5 3 7 4 ZW 1023,2 8 0 0,0
16.01.2017 11:00:00 -2,6 -5,3 -0,3 0,0 0,4 3,4 3 2 10 5 W 1023,3 3,8 14 0,0
16.01.2017 10:00:00 -3,4 -5,1 -0,4 0,0 0,4 3,4 4 2 6 3 WZW 1023,3 3,2 0 0,1
16.01.2017 09:00:00 -4,2 -4,6 -0,4 0,0 0,4 3,4 5 3 11 6 WZW 1023,2 5 0 0,0
16.01.2017 08:00:00 -4,5 -4,8 -0,4 0,0 0,4 3,4 9 5 18 10 W 1022,7 3,9 0 0,0
16.01.2017 07:00:00 -4,4 -5,1 -0,4 0,0 0,4 3,4 9 5 16 9 WNW 1022,3 6 0 0,0
16.01.2017 06:00:00 -4,4 -4,6 -0,4 0,0 0,4 3,4 8 4 13 7 W 1021,8 2,4 0 0,0
16.01.2017 05:00:00 -4,1 -4,4 -0,5 0,0 0,4 3,4 8 4 14 7 W 1021,6 2,6 0 0,4
16.01.2017 04:00:00 -4,1 -4,5 -0,5 0,0 0,4 3,4 10 6 14 8 W 1021,8 1,5 0 0,0
16.01.2017 03:00:00 -4,2 -4,5 -0,6 0,0 0,4 3,4 9 5 15 8 WZW 1022,0 4,7 0 0,0
16.01.2017 02:00:00 -4,5 -4,6 -0,6 0,0 0,4 3,4 8 5 15 8 ZW 1021,8 2,0 0 2,0
16.01.2017 01:00:00 -4,8 -5,2 -0,6 0,0 0,4 3,4 9 5 16 9 ZZW 1022,0 1,4 0 0,1
16.01.2017 00:00:00 -4,3 -4,9 -0,6 0,0 0,4 3,4 11 6 18 10 ZW 1022,2 4,1 0 0,2
15.01.2017 23:00:00 -4,3 -5,5 -0,6 0,0 0,4 3,4 12 6 18 10 WZW 1022,4 6 0 0,0
15.01.2017 22:00:00 -3,9 -4,9 -0,5 0,0 0,4 3,4 14 8 21 11 WZW 1022,5 6 0 0,0
15.01.2017 21:00:00 -3,6 -4,3 -0,4 0,0 0,4 3,4 12 7 16 8 ZW 1022,3 8 0 0,0
15.01.2017 20:00:00 -3,7 -4,4 -0,4 0,0 0,4 3,4 10 5 16 9 ZW 1022,4 12 0 0,0
15.01.2017 19:00:00 -3,2 -4,1 -0,3 0,0 0,4 3,4 9 5 14 8 ZZW 1022,1 4,2 0 0,0
15.01.2017 18:00:00 -3,1 -3,9 -0,2 0,0 0,4 3,4 10 6 32 17 ZW 1021,7 18 0 0,0
15.01.2017 17:00:00 -2,5 -4,1 -0,1 0,0 0,4 3,4 17 9 28 15 W 1021,2 29 0 0,0
15.01.2017 16:00:00 -2,4 -4,5 0,0 0,0 0,4 3,4 12 6 18 10 W 1020,8 21 14 0,0
15.01.2017 15:00:00 -2,9 -4,5 0,0 0,0 0,4 3,4 13 7 34 19 WZW 1020,8 27 4 0,8
15.01.2017 14:00:00 -1,4 -4,0 0,0 0,0 0,4 3,4 17 9 36 19 W 1020,3 10 20 0,0
15.01.2017 13:00:00 -1,7 -4,0 -0,1 0,0 0,4 3,4 18 10 34 19 WZW 1020,3 14 20 0,0
15.01.2017 12:00:00 -1,7 -3,7 -0,2 0,0 0,4 3,4 19 10 30 16 WZW 1020,4 17 0 0,0
15.01.2017 11:00:00 -2,3 -3,6 -0,3 0,0 0,4 3,4 16 9 25 14 WZW 1020,4 9 0 0,1

tt = temperatuur
td = dauwpunt
tt 5cm = temperatuur 5cm
tt -5cm = temperatuur -5cm
tt -20cm = temperatuur -20cm
tt -100cm = temperatuur -100cm
ff = windsnelheid
fx = windstoten
dd = windrichting
ppp = luchtdruk
vv = zicht
sd = Zonneschijnduur
rr = neerslag

Weerstations in de omgeving